[Date Prev][Date Next][Thread Prev][Thread Next] - [Date Index][Thread Index][Author Index]
2 Line ISS Keps 2-10
- Subject: [sarex] 2 Line ISS Keps 2-10
- From: "Dave Larsen PhD" <doc@xxxxxxxxxxx>
- Date: Wed, 9 Feb 2005 18:54:15 -0800
ISS
1 25544U 98067A 05039.90988595 +.00013281 +00000-0 +10959-3 0 07754
2 25544 051.6439 196.8731 0009822 079.0936 058.1277 15.70658618355516
----
Via the sarex mailing list at AMSAT.ORG courtesy of AMSAT-NA.
To unsubscribe, send "unsubscribe sarex" to Majordomo@amsat.org
AMSAT Home